EW6074 Weather Reports


time (UTC)temp
F
wind
direction
speed
knots
gust
knots
rain 1hr
in
rain 24hr
in
rain mn
in
humidity
%
barometer
mb
20260504194531 55 93 3.5 3.5 0.00 0.09 0.09 77 1004.5
20260504194026 55 71 0.9 1.7 0.00 0.09 0.09 80 1004.3
20260504193523 54 120 1.7 3.5 0.00 0.09 0.09 81 1004.4
20260504193022 54 21 2.6 3.5 0.00 0.09 0.09 79 1004.6
20260504192520 54 73 2.6 3.5 0.00 0.09 0.09 79 1004.5
20260504192018 55 351 0.9 2.6 0.00 0.09 0.09 79 1004.7
20260504191515 54 123 4.3 7.0 0.00 0.09 0.09 80 1004.7
20260504191011 54 150 1.7 2.6 0.00 0.09 0.09 82 1004.9
20260504190507 54 241 1.7 6.1 0.00 0.09 0.09 82 1004.9
20260504190003 54 110 1.7 5.2 0.00 0.09 0.09 80 1004.8
20260504185501 54 98 2.6 2.6 0.00 0.09 0.09 82 1005.0
20260504184957 53 124 1.7 3.5 0.00 0.09 0.09 83 1005.0
20260504184453 53 28 0.0 2.6 0.00 0.09 0.09 82 1005.2
20260504183948 52 275 0.0 0.9 0.00 0.09 0.09 84 1005.1
20260504183446 52 324 0.0 0.0 0.00 0.09 0.09 86 1005.2
20260504182944 51 324 0.0 0.0 0.00 0.09 0.09 85 1005.0
20260504182440 50 291 0.0 1.7 0.00 0.09 0.09 87 1005.3
20260504181938 51 209 1.7 2.6 0.00 0.09 0.09 86 1005.2
20260504181434 50 107 1.7 3.5 0.00 0.09 0.09 88 1005.2
20260504180933 50 139 3.5 3.5 0.00 0.09 0.09 88 1005.0
20260504180432 49 161 2.6 2.6 0.00 0.09 0.09 87 1005.4
20260504175930 49 141 1.7 2.6 0.00 0.09 0.09 91 1005.3
20260504175426 49 94 1.7 1.7 0.00 0.09 0.09 92 1005.3
20260504174924 49 98 0.0 2.6 0.00 0.09 0.09 93 1005.5
20260504174421 48 164 0.9 1.7 0.00 0.09 0.09 93 1005.3
20260504173919 48 78 0.9 1.7 0.00 0.09 0.09 93 1005.3
20260504173415 48 234 0.9 1.7 0.00 0.09 0.09 93 1005.5
20260504172913 48 159 0.0 1.7 0.00 0.09 0.09 94 1005.6
20260504172408 48 89 0.9 1.7 0.00 0.09 0.09 94 1005.5
20260504171905 47 113 3.5 3.5 0.00 0.09 0.09 96 1005.4
20260504171402 47 102 1.7 2.6 0.00 0.09 0.09 96 1005.6
20260504170859 47 123 1.7 1.7 0.00 0.09 0.09 97 1005.4
20260504170355 46 86 0.9 1.7 0.00 0.09 0.09 98 1005.5
20260504160314 46 134 1.7 1.7 0.05 0.08 0.08 95 1005.6
20260504150739 51 221 0.0 5.2 0.00 0.00 0.00 75 1004.7
20260504150236 52 341 0.0 3.5 0.00 0.00 0.00 71 1004.4
20260504141205 50 150 1.7 2.6 0.00 0.00 0.00 76 1004.3
20260504140702 50 197 0.0 1.7 0.00 0.00 0.00 75 1004.4
20260504140157 50 223 0.9 2.6 0.00 0.00 0.00 75 1004.3
20260504130626 48 163 3.5 5.2 0.00 0.00 0.00 83 1004.8
20260504130123 48 220 0.9 5.2 0.00 0.00 0.00 83 1005.0
20260504110514 39 97 0.0 0.0 0.00 0.00 0.00 90 1006.0
20260504100436 36 126 0.0 0.0 0.00 0.00 0.00 89 1006.0
20260504081824 32 289 0.0 0.0 0.00 0.00 0.00 97 1005.8
20260504081320 31 250 0.9 1.7 0.00 0.00 0.00 97 1005.7
20260504080816 31 307 0.0 0.0 0.00 0.00 0.00 98 1005.8
20260504080313 31 304 0.0 0.0 0.00 0.00 0.00 98 1005.9
20260504070240 31 270 0.0 0.0 0.00 0.00 0.00 95 1005.9
20260504060201 30 240 2.6 2.6 0.00 0.00 0.00 92 1006.0
20260504050629 33 154 0.0 0.0 0.00 0.00 0.00 85 1006.0
20260504050126 32 163 0.0 0.9 0.00 0.00 0.00 89 1006.0
20260504045623 32 162 0.9 0.9 0.00 0.00 0.00 90 1006.2
20260504045118 33 145 0.9 0.9 0.00 0.00 0.00 88 1006.2
20260504044616 32 159 0.9 0.9 0.00 0.00 0.00 87 1005.9
20260504044112 32 104 0.0 0.0 0.00 0.00 0.00 88 1006.2
20260504043609 32 167 0.0 0.9 0.00 0.00 0.00 90 1006.2
20260504043107 32 135 0.9 0.9 0.00 0.00 0.00 88 1006.1
20260504042604 32 126 0.9 1.7 0.00 0.00 0.00 88 1006.2
20260504042100 31 123 1.7 1.7 0.00 0.00 0.00 89 1006.2
20260504041556 32 106 0.0 0.9 0.00 0.00 0.00 88 1006.2
20260504041053 31 115 0.0 0.0 0.00 0.00 0.00 89 1006.0
20260504040550 32 120 0.0 0.0 0.00 0.00 0.00 90 1006.1
20260504040047 31 106 0.0 0.0 0.00 0.19 0.19 92 1006.0
20260504035543 31 107 0.0 0.0 0.00 0.19 0.19 92 1006.0
20260504035040 31 104 0.0 0.0 0.00 0.19 0.19 92 1005.9
20260504034538 30 103 0.0 0.0 0.00 0.19 0.19 92 1005.9
20260504034034 31 120 0.0 0.0 0.00 0.19 0.19 92 1006.0
20260504033533 30 122 0.0 0.0 0.00 0.19 0.19 93 1006.0
20260504033030 30 107 0.0 0.0 0.00 0.19 0.19 93 1005.8
20260504032527 30 83 0.0 0.9 0.00 0.19 0.19 93 1006.0
20260504032023 31 82 0.0 0.0 0.00 0.19 0.19 92 1006.1
20260504031520 31 83 0.0 0.0 0.00 0.19 0.19 91 1006.0
20260504031016 32 135 0.0 0.9 0.00 0.19 0.19 90 1006.0
20260504030514 33 137 0.9 2.6 0.00 0.19 0.19 87 1006.1
20260504030010 32 166 0.9 1.7 0.00 0.19 0.19 92 1005.9
20260504025507 32 108 0.0 0.9 0.00 0.19 0.19 90 1006.1
20260504025004 31 88 0.0 0.0 0.00 0.19 0.19 92 1006.0
20260504024500 32 104 0.0 0.0 0.00 0.19 0.19 92 1006.0
20260504023958 32 146 0.0 0.0 0.00 0.19 0.19 91 1005.9
20260504023454 33 147 0.0 0.9 0.00 0.19 0.19 90 1005.9
20260504022950 33 132 0.9 0.9 0.00 0.19 0.19 90 1005.9
20260504022446 33 141 0.0 0.0 0.00 0.19 0.19 90 1006.0
20260504021943 33 179 0.0 0.0 0.00 0.19 0.19 94 1006.1
20260504021440 33 180 0.0 0.9 0.00 0.19 0.19 93 1006.0
20260504020937 34 180 0.0 0.9 0.00 0.19 0.19 90 1006.1
20260504020434 34 122 0.0 0.9 0.00 0.19 0.19 89 1006.0
20260504015931 33 86 0.0 0.0 0.00 0.19 0.19 91 1006.0
20260504015427 33 86 0.0 0.0 0.00 0.19 0.19 89 1006.1
20260504014923 33 86 0.0 0.0 0.00 0.19 0.19 89 1006.0
20260504014419 33 86 0.0 0.0 0.00 0.19 0.19 88 1005.9
20260504013916 33 86 0.0 0.0 0.00 0.19 0.19 88 1006.1
20260504013415 33 86 0.0 0.0 0.00 0.19 0.19 89 1006.1
20260504012910 33 86 0.0 0.0 0.00 0.19 0.19 88 1005.9
20260504012408 34 86 0.0 0.0 0.00 0.19 0.19 88 1006.1
20260504011905 34 86 0.0 0.0 0.00 0.19 0.19 87 1006.1
20260504011402 34 86 0.0 0.0 0.00 0.19 0.19 88 1005.8
20260504010858 34 86 0.0 0.0 0.00 0.19 0.19 85 1006.0
20260504010354 35 86 0.0 0.0 0.00 0.19 0.19 86 1006.0
20260504005850 35 86 0.0 0.0 0.00 0.19 0.19 87 1005.9
20260504005347 35 86 0.0 0.0 0.00 0.19 0.19 86 1005.9
20260504004845 36 86 0.0 0.9 0.00 0.19 0.19 85 1005.9
20260504004343 36 86 0.0 0.9 0.00 0.19 0.19 85 1005.9
20260504003839 37 54 0.0 0.0 0.00 0.19 0.19 84 1005.8
20260504003336 38 333 0.0 0.0 0.00 0.19 0.19 78 1005.7
20260504002832 38 332 0.0 0.0 0.00 0.19 0.19 76 1005.7
20260504002329 40 334 0.0 0.0 0.00 0.19 0.19 72 1005.7
20260504001827 40 339 0.9 1.7 0.00 0.19 0.19 71 1005.5
20260504001324 39 282 0.0 1.7 0.00 0.19 0.19 73 1005.6
20260504000821 40 354 0.9 0.9 0.00 0.19 0.19 71 1005.4
20260504000318 41 336 0.0 1.7 0.00 0.19 0.19 71 1005.4
20260503235815 42 331 0.0 1.7 0.00 0.19 0.19 68 1005.5
20260503235313 42 316 0.0 1.7 0.00 0.19 0.19 67 1005.5
20260503234810 42 296 2.6 3.5 0.00 0.19 0.19 67 1005.6
20260503234308 42 276 0.9 0.9 0.00 0.19 0.19 67 1005.4
20260503233806 42 338 0.0 0.0 0.00 0.19 0.19 67 1005.2
20260503233301 42 325 1.7 3.5 0.00 0.19 0.19 66 1005.6
20260503232758 42 300 0.9 1.7 0.00 0.19 0.19 67 1005.5
20260503232255 42 311 3.5 3.5 0.00 0.19 0.19 66 1005.5
20260503231753 42 294 1.7 2.6 0.00 0.19 0.19 66 1005.5
20260503231250 42 307 0.0 1.7 0.00 0.19 0.19 67 1005.2
20260503230745 42 331 0.9 1.7 0.00 0.19 0.19 68 1005.6
20260503230243 42 227 2.6 8.7 0.00 0.19 0.19 67 1005.1
20260503225741 43 308 0.9 6.1 0.00 0.19 0.19 66 1005.3
20260503225241 43 257 1.7 3.5 0.00 0.19 0.19 66 1005.3
20260503224738 43 265 4.3 5.2 0.00 0.19 0.19 65 1005.4
20260503224236 43 353 1.7 2.6 0.00 0.19 0.19 67 1005.4
20260503223733 43 272 0.9 3.5 0.00 0.19 0.19 66 1005.3
20260503223231 43 339 0.0 2.6 0.00 0.19 0.19 66 1005.3
20260503222727 43 292 1.7 5.2 0.00 0.19 0.19 66 1005.1
20260503222225 42 292 1.7 3.5 0.00 0.19 0.19 68 1005.3
20260503221723 42 329 0.0 2.6 0.00 0.19 0.19 71 1005.2
20260503221220 42 287 0.9 3.5 0.00 0.19 0.19 69 1005.2
20260503220716 42 303 2.6 5.2 0.00 0.19 0.19 69 1005.2
20260503220214 42 359 1.7 7.8 0.00 0.19 0.19 68 1005.3
20260503215711 42 278 5.2 6.1 0.00 0.19 0.19 68 1005.2
20260503215208 42 280 4.3 7.0 0.00 0.19 0.19 67 1005.1
20260503214706 42 1 5.2 8.7 0.00 0.19 0.19 68 1005.3
20260503214202 42 347 3.5 6.1 0.00 0.19 0.19 67 1005.3
20260503213700 42 326 5.2 7.8 0.00 0.19 0.19 67 1005.2
20260503213157 43 280 3.5 6.1 0.00 0.19 0.19 65 1005.2
20260503212654 43 291 4.3 7.0 0.00 0.19 0.19 62 1005.1
20260503212151 44 291 7.8 11.3 0.00 0.19 0.19 62 1004.9
20260503211649 44 309 5.2 7.8 0.00 0.19 0.19 61 1005.0
20260503211144 44 347 9.6 13.9 0.00 0.19 0.19 59 1005.1
20260503210641 44 303 4.3 7.0 0.00 0.19 0.19 60 1005.0
20260503210138 44 298 4.3 6.1 0.00 0.19 0.19 60 1004.9
20260503205633 44 300 3.5 7.0 0.00 0.19 0.19 61 1004.9
20260503205130 44 335 7.0 7.8 0.00 0.19 0.19 61 1005.0
20260503204627 43 285 2.6 7.0 0.00 0.19 0.19 63 1004.9
20260503204125 43 265 2.6 6.1 0.00 0.19 0.19 63 1005.1
20260503203621 43 273 4.3 11.3 0.00 0.19 0.19 64 1005.0
20260503203119 43 274 2.6 8.7 0.00 0.19 0.19 64 1004.9
20260503202616 43 3 0.9 7.8 0.00 0.19 0.19 66 1005.0
20260503202114 43 299 1.7 2.6 0.00 0.19 0.19 69 1005.0
20260503201612 43 331 2.6 7.8 0.00 0.19 0.19 67 1004.9
20260503201109 43 353 1.7 7.0 0.00 0.19 0.19 65 1004.7
20260503200605 43 353 5.2 9.6 0.00 0.19 0.19 63 1004.9
20260503195559 44 306 1.7 5.2 0.00 0.19 0.19 63 1005.0
20260503195055 44 332 6.1 7.8 0.00 0.19 0.19 60 1004.7